EW9135 Weather Reports


time (UTC)temp
F
wind
direction
speed
knots
gust
knots
rain 1hr
in
rain 24hr
in
rain mn
in
humidity
%
barometer
mb
20260903041235 68 250 0.0 0.0 0.00 0.00 0.00 31 1023.1
20260903040728 68 38 0.0 0.0 0.00 0.00 0.00 31 1023.1
20260903040722 68 218 0.0 0.0 0.00 0.00 0.00 31 1023.1
20260903035717 68 200 0.0 0.0 0.00 0.00 0.00 30 1023.1
20260903035210 69 243 0.0 0.0 0.00 0.00 0.00 30 1023.1
20260903034705 69 219 0.0 0.0 0.00 0.00 0.00 30 1023.1
20260903034200 69 220 0.0 0.0 0.00 0.00 0.00 30 1023.1
20260903033653 69 222 0.0 0.0 0.00 0.00 0.00 30 1022.8
20260903033147 69 319 0.0 0.0 0.00 0.00 0.00 30 1022.4
20260903032643 69 221 0.0 0.0 0.00 0.00 0.00 29 1022.4
20260903032136 70 183 0.0 0.0 0.00 0.00 0.00 29 1022.4
20260903031630 70 14 0.0 0.0 0.00 0.00 0.00 28 1022.4
20260903031125 70 245 0.0 0.9 0.00 0.00 0.00 28 1022.4
20260903030619 70 309 0.0 0.9 0.00 0.00 0.00 27 1022.4
20260903030610 71 277 0.0 0.9 0.00 0.00 0.00 25 1022.4
20260903030215 70 234 0.0 0.0 0.00 0.00 0.00 25 1022.1
20260903025101 71 301 0.0 0.9 0.00 0.00 0.00 25 1022.4
20260903024555 71 241 0.0 0.9 0.00 0.00 0.00 24 1022.4
20260903024053 71 331 0.0 0.9 0.00 0.00 0.00 24 1022.4
20260903024045 72 293 0.0 0.9 0.00 0.00 0.00 23 1022.4
20260903023037 72 231 0.0 0.9 0.00 0.00 0.00 22 1022.4
20260903022533 72 348 0.0 0.9 0.00 0.00 0.00 21 1022.1
20260903022026 72 249 0.0 0.9 0.00 0.00 0.00 19 1022.1
20260903021520 73 345 0.0 0.9 0.00 0.00 0.00 19 1022.1
20260903021016 73 196 0.0 0.9 0.00 0.00 0.00 19 1022.1
20260903020508 73 290 0.0 0.9 0.00 0.00 0.00 19 1022.4
20260903020004 73 226 0.0 0.0 0.00 0.00 0.00 19 1022.1
20260903015458 74 311 0.0 0.0 0.00 0.00 0.00 20 1022.4
20260903014951 74 221 0.0 0.0 0.00 0.00 0.00 20 1022.1
20260903014943 75 260 0.0 0.9 0.00 0.00 0.00 22 1022.1
20260903014546 74 215 0.0 0.9 0.00 0.00 0.00 20 1022.4
20260903013434 75 294 0.0 0.9 0.00 0.00 0.00 22 1022.1
20260903012928 76 225 0.0 2.6 0.00 0.00 0.00 22 1021.8
20260903012423 76 289 0.0 2.6 0.00 0.00 0.00 22 1022.1
20260903011916 76 176 0.0 0.0 0.00 0.00 0.00 22 1022.1
20260903011411 77 215 0.0 1.7 0.00 0.00 0.00 21 1022.1
20260903010906 77 249 0.0 1.7 0.00 0.00 0.00 20 1022.1
20260903010400 77 280 0.0 0.9 0.00 0.00 0.00 19 1021.8
20260903010354 77 154 0.0 0.9 0.00 0.00 0.00 19 1022.1
20260903005348 77 243 0.0 0.0 0.00 0.00 0.00 18 1022.1
20260903004842 77 281 0.0 0.0 0.00 0.00 0.00 20 1021.8
20260903004338 77 213 0.0 0.0 0.00 0.00 0.00 20 1022.1
20260903003831 77 145 0.0 0.0 0.00 0.00 0.00 20 1022.1
20260903003325 77 222 0.0 1.7 0.00 0.00 0.00 20 1022.1
20260903003320 77 170 0.0 1.7 0.00 0.00 0.00 20 1022.1
20260903002315 77 142 0.0 0.9 0.00 0.00 0.00 20 1021.8
20260903002308 77 38 0.0 0.9 0.00 0.00 0.00 20 1022.4
20260903001301 77 174 0.0 0.0 0.00 0.00 0.00 20 1022.1
20260903000757 76 188 0.0 0.0 0.00 0.00 0.00 20 1022.1
20260903000249 76 96 0.0 0.0 0.00 0.00 0.00 21 1022.1
20260902235744 76 141 0.0 0.0 0.00 0.00 0.00 21 1022.4
20260902235239 76 174 0.0 0.0 0.00 0.00 0.00 20 1022.4
20260902234733 76 199 0.0 0.0 0.00 0.00 0.00 21 1022.4
20260902234226 76 159 0.0 0.0 0.00 0.00 0.00 21 1022.4
20260902234216 76 186 0.0 0.0 0.00 0.00 0.00 21 1022.4
20260902233820 76 149 0.0 0.0 0.00 0.00 0.00 21 1022.4
20260902233316 76 182 0.0 0.0 0.00 0.00 0.00 20 1022.8
20260902232204 76 187 0.0 0.0 0.00 0.00 0.00 21 1022.4
20260902231657 77 198 0.0 0.0 0.00 0.00 0.00 21 1022.4
20260902231152 77 231 0.0 0.0 0.00 0.00 0.00 21 1022.4
20260902230647 77 140 0.0 0.0 0.00 0.00 0.00 21 1022.4
20260902230140 77 140 0.0 0.9 0.00 0.00 0.00 21 1022.4
20260902225634 78 196 0.0 1.7 0.00 0.00 0.00 21 1022.4
20260902225129 78 306 0.0 1.7 0.00 0.00 0.00 20 1022.8
20260902224622 78 245 0.0 1.7 0.00 0.00 0.00 20 1022.4
20260902224116 78 169 0.0 1.7 0.00 0.00 0.00 20 1022.8
20260902223612 78 56 0.0 0.9 0.00 0.00 0.00 21 1022.4
20260902223105 79 123 0.0 0.9 0.00 0.00 0.00 20 1022.8
20260902222559 78 211 0.0 0.9 0.00 0.00 0.00 14 1022.8
20260902222055 78 324 0.0 0.9 0.00 0.00 0.00 19 1022.8
20260902221547 78 325 0.0 0.9 0.00 0.00 0.00 16 1022.8
20260902221042 78 229 0.0 0.9 0.00 0.00 0.00 18 1023.1
20260902220537 78 25 0.0 0.9 0.00 0.00 0.00 19 1023.1
20260902220530 78 167 0.0 1.7 0.00 0.00 0.00 17 1023.1
20260902215524 78 286 0.0 1.7 0.00 0.00 0.00 20 1023.5
20260902215019 78 63 0.0 1.7 0.00 0.00 0.00 20 1023.5
20260902214513 78 321 0.0 0.0 0.00 0.00 0.00 19 1023.5
20260902214006 78 322 0.0 0.0 0.00 0.00 0.00 18 1023.5
20260902213502 78 125 0.0 0.9 0.00 0.00 0.00 19 1023.5
20260902212955 78 343 0.0 1.7 0.00 0.00 0.00 21 1023.5
20260902212449 78 229 0.0 1.7 0.00 0.00 0.00 20 1023.5
20260902211947 77 23 0.0 0.9 0.00 0.00 0.00 20 1023.5
20260902211940 77 38 0.0 0.9 0.00 0.00 0.00 20 1023.8
20260902210932 76 301 0.0 0.0 0.00 0.00 0.00 20 1023.8
20260902210428 76 287 0.0 0.0 0.00 0.00 0.00 20 1023.8
20260902205920 75 84 0.0 0.9 0.00 0.00 0.00 21 1024.1
20260902205906 74 308 0.0 0.0 0.00 0.00 0.00 24 1023.8
20260902205513 75 117 0.0 0.0 0.00 0.00 0.00 23 1023.8
20260902205010 75 331 0.0 0.0 0.00 0.00 0.00 23 1023.8
20260902203857 74 252 0.0 0.9 0.00 0.00 0.00 25 1023.8
20260902203352 74 289 0.0 0.9 0.00 0.00 0.00 25 1023.8
20260902202845 75 58 0.0 1.7 0.00 0.00 0.00 25 1024.1
20260902202340 75 267 0.0 1.7 0.00 0.00 0.00 23 1024.1
20260902202329 76 83 0.0 0.0 0.00 0.00 0.00 25 1024.1
20260902201935 75 192 0.0 1.7 0.00 0.00 0.00 27 1024.1
20260902200827 77 307 0.0 0.9 0.00 0.00 0.00 22 1024.1
20260902200823 76 333 0.0 0.9 0.00 0.00 0.00 23 1024.1
20260902195810 77 227 0.0 1.7 0.00 0.00 0.00 23 1024.1
20260902195306 78 279 0.0 1.7 0.00 0.00 0.00 24 1024.1
20260902194800 78 14 0.0 0.9 0.00 0.00 0.00 22 1024.1
20260902194253 78 355 0.0 0.0 0.00 0.00 0.00 17 1024.1
20260902193748 77 328 0.0 0.0 0.00 0.00 0.00 18 1024.5
20260902193743 77 27 0.0 0.0 0.00 0.00 0.00 14 1024.1
20260902192737 77 154 0.0 0.0 0.00 0.00 0.00 16 1024.1
20260902192730 76 344 0.0 0.0 0.00 0.00 0.00 18 1024.1
20260902191725 76 130 0.0 0.0 0.00 0.00 0.00 16 1024.5
20260902191218 76 136 0.0 0.0 0.00 0.00 0.00 18 1024.5
20260902190712 75 134 0.0 0.0 0.00 0.00 0.00 21 1024.5
20260902190208 75 332 0.0 0.0 0.00 0.00 0.00 18 1024.5
20260902185700 74 220 0.0 0.0 0.00 0.00 0.00 20 1024.5
20260902185155 74 265 0.0 0.0 0.00 0.00 0.00 20 1024.8
20260902184651 74 274 0.0 0.0 0.00 0.00 0.00 22 1024.5
20260902184143 74 191 0.0 0.9 0.00 0.00 0.00 22 1024.5
20260902183638 75 281 0.0 0.9 0.00 0.00 0.00 20 1024.1
20260902183133 75 220 0.0 0.0 0.00 0.00 0.00 22 1024.5
20260902182626 76 49 0.0 0.0 0.00 0.00 0.00 22 1024.5
20260902182120 76 194 0.0 0.9 0.00 0.00 0.00 22 1024.8
20260902181615 76 234 0.0 0.9 0.00 0.00 0.00 22 1024.5
20260902181108 76 234 0.0 0.0 0.00 0.00 0.00 16 1024.5
20260902180603 76 205 0.0 0.0 0.00 0.00 0.00 15 1024.5
20260902180100 76 226 0.0 0.0 0.00 0.00 0.00 18 1024.1
20260902175552 76 179 0.0 0.0 0.00 0.00 0.00 15 1024.1
20260902175547 75 246 0.0 0.0 0.00 0.00 0.00 17 1024.5
20260902174540 75 181 0.0 0.0 0.00 0.00 0.00 18 1024.5
20260902174034 74 207 0.0 0.0 0.00 0.00 0.00 20 1024.1
20260902174025 74 205 0.0 0.0 0.00 0.00 0.00 14 1024.5
20260902173629 74 152 0.0 0.0 0.00 0.00 0.00 20 1024.1
20260902172515 73 169 0.0 0.0 0.00 0.00 0.00 16 1024.5
20260902172010 72 130 0.0 0.0 0.00 0.00 0.00 21 1024.1
20260902171505 71 225 0.0 0.0 0.00 0.00 0.00 22 1024.1
20260902170959 71 184 0.0 0.0 0.00 0.00 0.00 20 1024.5
20260902170453 71 113 0.0 0.0 0.00 0.00 0.00 20 1024.1
20260902165948 71 157 0.0 0.0 0.00 0.00 0.00 20 1024.1
20260902165443 71 114 0.0 0.0 0.00 0.00 0.00 21 1024.1
20260902165438 70 202 0.0 0.0 0.00 0.00 0.00 22 1024.1
20260902164431 70 138 0.0 0.0 0.00 0.00 0.00 21 1024.1
20260902164424 70 178 0.0 0.0 0.00 0.00 0.00 20 1024.1
20260902163418 69 149 0.0 0.0 0.00 0.00 0.00 19 1024.5
20260902162913 69 177 0.0 0.0 0.00 0.00 0.00 22 1024.1
20260902162407 68 181 0.0 0.0 0.00 0.00 0.00 20 1024.1
20260902161900 67 232 0.0 0.0 0.00 0.00 0.00 22 1024.5
20260902161357 67 195 0.0 0.0 0.00 0.00 0.00 21 1024.1
20260902161351 66 219 0.0 0.0 0.00 0.00 0.00 25 1024.5
20260902160343 66 218 0.0 0.0 0.00 0.00 0.00 27 1024.5
20260902155839 65 154 0.0 0.0 0.00 0.00 0.00 27 1024.1
20260902155332 65 109 0.0 0.0 0.00 0.00 0.00 27 1024.5
20260902154826 64 125 0.0 0.0 0.00 0.00 0.00 29 1024.5
20260902154321 64 223 0.0 0.0 0.00 0.00 0.00 32 1024.5
20260902154315 63 249 0.0 0.0 0.00 0.00 0.00 32 1024.5
20260902153309 63 200 0.0 0.0 0.00 0.00 0.00 31 1024.8
20260902152804 62 172 0.0 0.0 0.00 0.00 0.00 32 1024.5
20260902152258 62 165 0.0 0.0 0.00 0.00 0.00 33 1024.5
20260902151753 62 186 0.0 0.0 0.00 0.00 0.00 32 1024.5
20260902151747 62 193 0.0 0.0 0.00 0.00 0.00 32 1024.1
20260902150740 62 200 0.0 0.0 0.00 0.00 0.00 32 1024.5
20260902150233 62 231 0.0 0.0 0.00 0.00 0.00 32 1024.1
20260902145729 62 206 0.0 0.0 0.00 0.00 0.00 32 1024.1
20260902145222 62 131 0.0 0.0 0.00 0.00 0.00 33 1023.8
20260902144716 62 168 0.0 0.0 0.00 0.00 0.00 33 1023.8
20260902144212 61 201 0.0 0.0 0.00 0.00 0.00 34 1023.8
20260902143704 61 137 0.0 0.0 0.00 0.00 0.00 35 1023.5
20260902143158 61 173 0.0 0.0 0.00 0.00 0.00 35 1023.8
20260902142654 61 193 0.0 0.0 0.00 0.00 0.00 35 1023.8
20260902142147 61 211 0.0 0.0 0.00 0.00 0.00 35 1023.8
20260902141641 61 189 0.0 0.0 0.00 0.00 0.00 36 1024.1
20260902141137 61 182 0.0 0.0 0.00 0.00 0.00 36 1023.8
20260902140631 61 217 0.0 0.0 0.00 0.00 0.00 36 1023.8
20260902140625 61 196 0.0 0.0 0.00 0.00 0.00 36 1023.8
20260902135620 61 208 0.0 0.0 0.00 0.00 0.00 36 1023.5
20260902135112 61 202 0.0 0.0 0.00 0.00 0.00 36 1023.5
20260902135107 61 195 0.0 0.0 0.00 0.00 0.00 36 1023.5
20260902134102 61 211 0.0 0.0 0.00 0.00 0.00 36 1023.8
20260902133558 60 146 0.0 0.0 0.00 0.00 0.00 36 1023.5
20260902133553 60 220 0.0 0.0 0.00 0.00 0.00 36 1023.5
20260902133046 60 218 0.0 0.0 0.00 0.00 0.00 37 1023.5
20260902132038 60 193 0.0 0.0 0.00 0.00 0.00 38 1023.1
20260902131532 60 203 0.0 0.0 0.00 0.00 0.00 38 1023.1
20260902131027 60 203 0.0 0.0 0.00 0.00 0.00 37 1022.8
20260902130520 60 202 0.0 0.0 0.00 0.00 0.00 37 1023.1
20260902130016 60 133 0.0 0.0 0.00 0.00 0.00 38 1023.1
20260902130010 60 188 0.0 0.0 0.00 0.00 0.00 38 1022.8
20260902125003 60 228 0.0 0.0 0.00 0.00 0.00 38 1022.8
20260902124457 60 213 0.0 0.0 0.00 0.00 0.00 38 1022.8
20260902123952 60 213 0.0 0.0 0.00 0.00 0.00 38 1022.8
20260902123445 60 211 0.0 0.0 0.00 0.00 0.00 38 1022.8
20260902122939 60 203 0.0 0.0 0.00 0.00 0.00 38 1022.8
20260902122435 60 201 0.0 0.0 0.00 0.00 0.00 38 1023.1
20260902121928 60 190 0.0 0.0 0.00 0.00 0.00 38 1022.8
20260902121423 60 230 0.0 0.0 0.00 0.00 0.00 38 1023.1
20260902120917 60 187 0.0 0.0 0.00 0.00 0.00 38 1022.8
20260902120411 60 207 0.0 0.0 0.00 0.00 0.00 38 1023.1
20260902115905 60 207 0.0 0.0 0.00 0.00 0.00 38 1023.1
20260902115401 60 219 0.0 0.0 0.00 0.00 0.00 38 1022.8
20260902115354 61 219 0.0 0.0 0.00 0.00 0.00 37 1023.1
20260902114348 61 236 0.0 0.0 0.00 0.00 0.00 37 1023.1
20260902113843 61 218 0.0 0.0 0.00 0.00 0.00 37 1022.8
20260902113336 61 215 0.0 0.0 0.00 0.00 0.00 36 1023.1
20260902112830 62 177 0.0 0.0 0.00 0.00 0.00 35 1023.1
20260902112325 62 120 0.0 0.0 0.00 0.00 0.00 35 1023.5
20260902111818 62 198 0.0 0.0 0.00 0.00 0.00 34 1023.1
20260902111313 62 161 0.0 0.0 0.00 0.00 0.00 34 1023.5
20260902110808 62 220 0.0 0.0 0.00 0.00 0.00 35 1023.5
20260902110301 62 223 0.0 0.0 0.00 0.00 0.00 34 1023.5
20260902105755 62 196 0.0 0.0 0.00 0.00 0.00 34 1023.5
20260902105251 61 203 0.0 0.0 0.00 0.00 0.00 35 1023.8
20260902104745 61 213 0.0 0.0 0.00 0.00 0.00 36 1023.8
20260902104239 61 208 0.0 0.0 0.00 0.00 0.00 36 1023.8
20260902103733 61 208 0.0 0.0 0.00 0.00 0.00 35 1023.8
20260902103226 61 210 0.0 0.0 0.00 0.00 0.00 36 1023.5
20260902102721 61 244 0.0 0.0 0.00 0.00 0.00 36 1023.8
20260902102216 60 235 0.0 0.0 0.00 0.00 0.00 37 1023.8
20260902102209 60 252 0.0 0.0 0.00 0.00 0.00 37 1023.5
20260902101204 60 239 0.0 0.0 0.00 0.00 0.00 38 1023.8
20260902100658 60 218 0.0 0.0 0.00 0.00 0.00 39 1023.8
20260902100151 60 225 0.0 0.0 0.00 0.00 0.00 39 1023.8
20260902095645 60 231 0.0 0.0 0.00 0.00 0.00 39 1023.8
20260902095142 60 216 0.0 0.0 0.00 0.00 0.00 39 1023.8
20260902094634 60 218 0.0 0.0 0.00 0.00 0.00 39 1023.8
20260902094128 60 211 0.0 0.0 0.00 0.00 0.00 39 1023.8
20260902094119 61 242 0.0 0.0 0.00 0.00 0.00 39 1023.5
20260902093725 61 229 0.0 0.0 0.00 0.00 0.00 39 1023.5
20260902092611 61 258 0.0 0.0 0.00 0.00 0.00 39 1023.8
20260902092107 61 217 0.0 0.0 0.00 0.00 0.00 38 1023.8
20260902091600 62 233 0.0 0.0 0.00 0.00 0.00 37 1023.5
20260902091555 62 202 0.0 0.0 0.00 0.00 0.00 36 1023.5
20260902090550 62 202 0.0 0.0 0.00 0.00 0.00 36 1023.5
20260902090544 62 238 0.0 0.0 0.00 0.00 0.00 35 1023.5
20260902085536 62 218 0.0 0.0 0.00 0.00 0.00 36 1023.5
20260902085032 62 226 0.0 0.0 0.00 0.00 0.00 35 1023.5
20260902084525 62 231 0.0 0.0 0.00 0.00 0.00 35 1023.5
20260902084019 62 224 0.0 0.0 0.00 0.00 0.00 35 1023.5
20260902083514 62 234 0.0 0.0 0.00 0.00 0.00 35 1023.1
20260902083007 62 232 0.0 0.0 0.00 0.00 0.00 35 1023.5
20260902082501 62 233 0.0 0.0 0.00 0.00 0.00 35 1023.5
20260902081957 63 250 0.0 0.0 0.00 0.00 0.00 35 1023.5
20260902081450 63 234 0.0 0.0 0.00 0.00 0.00 34 1023.5
20260902080945 63 247 0.0 0.0 0.00 0.00 0.00 33 1023.5
20260902080440 63 206 0.0 0.0 0.00 0.00 0.00 33 1023.5
20260902075939 62 234 0.0 0.0 0.00 0.01 0.00 34 1023.1
20260902075433 62 222 0.0 0.0 0.00 0.01 0.00 33 1023.5
20260902075426 62 219 0.0 0.0 0.00 0.01 0.00 32 1023.5
20260902075028 62 233 0.0 0.0 0.00 0.01 0.00 33 1023.5
20260902073917 62 133 0.0 0.0 0.00 0.01 0.00 31 1023.5
20260902073412 62 338 0.0 0.0 0.00 0.01 0.00 31 1023.1
20260902072907 62 234 0.0 0.0 0.00 0.01 0.00 32 1023.1
20260902072902 62 250 0.0 0.0 0.00 0.01 0.00 32 1023.1
20260902071856 62 202 0.0 0.0 0.00 0.01 0.00 33 1023.5
20260902071351 62 203 0.0 0.0 0.00 0.01 0.00 33 1023.1
20260902070846 62 225 0.0 0.0 0.00 0.01 0.00 33 1023.1
20260902070342 62 218 0.0 0.0 0.00 0.01 0.00 33 1023.5
20260902070336 62 218 0.0 0.0 0.00 0.01 0.01 34 1023.1
20260902065329 62 230 0.0 0.0 0.00 0.01 0.01 34 1023.1
20260902064826 62 245 0.0 0.0 0.00 0.01 0.01 34 1023.5
20260902064319 62 195 0.0 0.0 0.00 0.01 0.01 33 1023.1
20260902063814 63 195 0.0 0.0 0.00 0.01 0.01 33 1023.5
20260902063309 63 196 0.0 0.0 0.00 0.01 0.01 33 1023.5
20260902062804 63 206 0.0 0.0 0.00 0.01 0.01 32 1023.1
20260902062259 63 226 0.0 0.0 0.00 0.01 0.01 32 1023.5
20260902061753 63 217 0.0 0.0 0.00 0.01 0.01 31 1023.5
20260902061249 63 251 0.0 0.0 0.00 0.01 0.01 31 1023.1
20260902061243 63 203 0.0 0.0 0.00 0.01 0.01 31 1023.1
20260902060238 63 207 0.0 0.0 0.00 0.01 0.01 31 1023.1
20260902055732 63 247 0.0 0.0 0.00 0.01 0.01 31 1023.5
20260902055227 63 274 0.0 0.0 0.00 0.01 0.01 31 1023.5
20260902055222 63 240 0.0 0.0 0.00 0.01 0.01 33 1023.5
20260902054216 63 218 0.0 0.0 0.00 0.01 0.01 32 1023.5
20260902053710 63 218 0.0 0.0 0.00 0.01 0.01 31 1023.5
20260902053205 63 238 0.0 0.0 0.00 0.01 0.01 31 1023.5
20260902052659 63 221 0.0 0.0 0.00 0.01 0.01 31 1023.5
20260902052155 63 210 0.0 0.0 0.00 0.01 0.01 31 1023.5
20260902051649 63 252 0.0 0.0 0.00 0.01 0.01 31 1023.5
20260902051143 63 227 0.0 0.0 0.00 0.01 0.01 31 1023.5
20260902050638 63 238 0.0 0.0 0.00 0.01 0.01 31 1023.8
20260902050633 63 219 0.0 0.0 0.00 0.01 0.01 30 1023.5
20260902045628 64 206 0.0 0.0 0.00 0.01 0.01 30 1023.8
20260902045122 64 217 0.0 0.0 0.00 0.01 0.01 30 1023.5
20260902044617 64 189 0.0 0.0 0.00 0.01 0.01 29 1023.8
20260902044112 64 217 0.0 0.0 0.00 0.01 0.01 29 1023.5
20260902043607 64 197 0.0 0.0 0.00 0.01 0.01 29 1023.5
20260902043101 64 201 0.0 0.0 0.00 0.01 0.01 28 1023.5
20260902042556 65 208 0.0 0.9 0.00 0.01 0.01 30 1023.5
20260902042052 65 281 0.0 0.9 0.00 0.01 0.01 30 1023.5
20260902042047 65 242 0.0 0.0 0.00 0.01 0.01 30 1023.5